• Processing (Info)

  • MPEC 2017-F217: 2017 FQ127

    The following Minor Planet Electronic Circular may be linked-to from your own Web pages, but must not otherwise be redistributed electronically.

    A form allowing access to any MPEC is at the bottom of this page.


    Read MPEC 2017-F216 Read MPEC 2017-G01


    M.P.E.C. 2017-F217                               Issued 2017 Mar. 31, 16:40 UT
    
         The Minor Planet Electronic Circulars contain information on unusual
             minor planets and routine data on comets.  They are published
        on behalf of Division F of the International Astronomical Union by the
              Minor Planet Center, Smithsonian Astrophysical Observatory,
                              Cambridge, MA 02138, U.S.A.
    
                 Prepared using the Tamkin Foundation Computer Network
    
                                  MPC@CFA.HARVARD.EDU
                URL https://www.minorplanetcenter.net/    ISSN 1523-6714
    
                                      2017 FQ127
    
    Observations:
         K17FC7Q* C2017 03 29.42288 14 06 43.69 +21 43 24.8          20.7 VqEF217G96
         K17FC7Q  C2017 03 29.42714 14 06 42.72 +21 43 06.5          20.4 VqEF217G96
         K17FC7Q  C2017 03 29.43140 14 06 41.71 +21 42 48.3          20.6 VqEF217G96
         K17FC7Q  C2017 03 29.43567 14 06 40.75 +21 42 30.5          20.5 VqEF217G96
         K17FC7Q  C2017 03 29.45541 14 06 36.23 +21 41 06.6          20.7 VqEF217G96
         K17FC7Q  C2017 03 29.45812 14 06 35.61 +21 40 55.0          20.5 VqEF217G96
         K17FC7Q  C2017 03 29.46144 14 06 34.91 +21 40 41.2          20.9 VqEF217G96
         K17FC7Q  C2017 03 29.46374 14 06 34.36 +21 40 30.3          21.1 VqEF217G96
         K17FC7Q  C2017 03 29.46877 14 06 33.19 +21 40 08.5          20.9 VqEF217I52
         K17FC7Q  C2017 03 29.47406 14 06 31.99 +21 39 45.4          21.5 VqEF217I52
         K17FC7Q  C2017 03 29.47859 14 06 30.99 +21 39 25.1          21.4 VqEF217I52
         K17FC7Q  C2017 03 29.48245 14 06 30.11 +21 39 08.5                qEF217I52
         K17FC7Q  C2017 03 30.39488 14 03 39.31 +20 22 12.8          20.3 VqEF217I52
         K17FC7Q  C2017 03 30.39564 14 03 39.06 +20 22 08.0          20.2 VqEF217I52
         K17FC7Q  C2017 03 30.39640 14 03 38.80 +20 22 03.3          20.3 VqEF217I52
         K17FC7Q  C2017 03 30.39716 14 03 38.56 +20 21 58.7          20.2 VqEF217I52
         K17FC7Q  C2017 03 30.42392 14 03 29.79 +20 19 13.7          19.5 RoEF217926
         K17FC7Q  C2017 03 30.42786 14 03 28.49 +20 18 48.6          19.5 RoEF217926
         K17FC7Q  C2017 03 30.43307 14 03 26.78 +20 18 15.1          19.6 RoEF217926
         K17FC7Q  C2017 03 30.93946 14 01 23.01 +19 16 21.4          20.0 VSEF217033
         K17FC7Q  C2017 03 30.94176 14 01 22.16 +19 16 03.1          20.1 VSEF217033
         K17FC7Q  C2017 03 30.94405 14 01 21.32 +19 15 45.5          20.1 VSEF217033
         K17FC7Q  C2017 03 30.94635 14 01 20.45 +19 15 26.4          20.0 VSEF217033
         K17FC7Q KC2017 03 31.02895 14 00 48.69 +19 04 35.5          19.7  tEF217K63
         K17FC7Q KC2017 03 31.03514 14 00 46.19 +19 03 41.9          19.9  tEF217K63
         K17FC7Q KC2017 03 31.04041 14 00 44.08 +19 02 56.5          19.8  tEF217K63
         K17FC7Q  C2017 03 31.24914 13 59 46.68 +18 31 50.5          19.9 VqEF217I52
         K17FC7Q  C2017 03 31.24955 13 59 46.48 +18 31 47.0                qEF217I52
         K17FC7Q  C2017 03 31.24997 13 59 46.31 +18 31 43.7                qEF217I52
         K17FC7Q  C2017 03 31.25038 13 59 46.12 +18 31 38.9                qEF217I52
    
    Observer details:
    033 Karl Schwarzschild Observatory, Tautenburg.  Observers F. Ludwig,
        B. Stecklum.  Measurer B. Stecklum.  1.34-m f/3 Schmidt + CCD.
    926 Tenagra II Observatory.  Observers M. Schwartz, P. R. Holvorcem.  Measurer
        M. Schwartz.  0.81-m f/7 Ritchey-Chretien + CCD.
    G96 Mt. Lemmon Survey.  Observer R. G. Matheny.  Measurers E. J. Christensen,
        D. C. Fuls, A. R. Gibbs, A. D. Grauer, J. A. Johnson, R. A. Kowalski,
        S. M. Larson, G. J. Leonard, R. G. Matheny, R. L. Seaman, F. C. Shelly.
        1.5-m reflector + 10K CCD.
    I52 Steward Observatory, Mt. Lemmon Station.  Observers D. C. Fuls,
        J. A. Johnson.  Measurers E. J. Christensen, D. C. Fuls, A. R. Gibbs,
        A. D. Grauer, J. A. Johnson, R. A. Kowalski, S. M. Larson, G. J. Leonard,
        R. G. Matheny, R. L. Seaman, F. C. Shelly.  1.0-m reflector + CCD.
    K63 G. Pascoli Observatory, Castelvecchio Pascoli.  Observer R. Bacci.  0.30-m
        f/4 Newtonian reflector + CCD.
    
    Orbital elements:
    2017 FQ127                                               Earth MOID = 0.0021 AU
    Epoch 2017 Feb. 16.0 TT = JDT 2457800.5                 MPC
    M 271.13526              (2000.0)            P               Q
    n   0.80939321     Peri.  271.03358     +0.23381695     +0.96981531
    a   1.1403277      Node    13.12545     -0.72593892     +0.22147621
    e   0.3487017      Incl.   17.74068     -0.64679388     +0.10201250
    P   1.22           H   26.1           G   0.15           U   7
    Residuals in seconds of arc
    170329 G96  0.0   0.4+    170329 I52  0.2-  0.5-    170330 033  0.0   0.3-
    170329 G96  0.2+  0.0     170329 I52  0.5-  0.2-    170330 033  0.1+  0.3+
    170329 G96  0.2-  0.3-    170330 I52  0.1-  0.3-    170330 033  0.1-  0.4-
    170329 G96  0.1+  0.1-    170330 I52  0.1-  0.3-    170331 K63  0.8-  0.7+
    170329 G96  0.0   0.2+    170330 I52  0.3-  0.3-    170331 K63  0.1-  0.1+
    170329 G96  0.0   0.2+    170330 I52  0.1-  0.1-    170331 K63  0.8+  0.0
    170329 G96  0.7+  0.8+    170330 926  0.3+  0.2+    170331 I52  0.1+  0.3-
    170329 G96  0.3+  0.2-    170330 926  0.2+  0.4+    170331 I52  0.2-  0.0
    170329 I52  0.2-  0.1-    170330 926  0.3+  0.5+    170331 I52  0.0   0.6+
    170329 I52  0.4-  0.1-    170330 033  0.0   0.3-    170331 I52  0.1-  0.4-
    
    Ephemeris:
    2017 FQ127               a,e,i = 1.14, 0.35, 18                  q = 0.7427
    Date    TT    R. A. (2000) Decl.     Delta      r     Elong.  Phase     V
    2017 03 01    14 03 59.2 +24 53 04   0.2875  1.1965   130.1    39.3    25.3
    ...
    2017 03 16    14 13 01.9 +25 20 12   0.1558  1.1135   136.9    37.6    23.8
    ...
    2017 03 24    14 13 07.0 +24 34 59   0.08830 1.0669   140.9    36.1    22.4
    ...
    2017 03 30    14 05 06.3 +21 00 13   0.03872 1.0313   146.7    32.1    20.5
    2017 03 31    14 00 57.9 +19 10 47   0.03057 1.0253   149.0    30.1    19.9
    2017 04 01    13 53 58.0 +16 00 13   0.02250 1.0193   152.8    26.6    19.1
    ...
    2017 04 07    02 48 19.9 -36 52 28   0.02794 0.9832    50.1   128.7    23.9
    ...
    2017 04 15    02 27 30.7 -29 57 43   0.09361 0.9355    41.8   134.4    27.0
    ...
    2017 04 30    02 20 29.5 -25 47 04   0.2214  0.8512    40.5   129.7    28.2
    
    A. U. Tomatic                (C) Copyright 2017 MPC           M.P.E.C. 2017-F217
    

    Read MPEC 2017-F216 Read MPEC 2017-G01


    MPEC number:

    Enter an MPEC number in one of the following forms:

    • 1997-B01 (the full form)
    • J97B01 (the packed version of the full form)
    • B01 (the abbreviated form)